TimeEDT,TemperatureF,Dew PointF,Humidity,Sea Level PressureIn,VisibilityMPH,Wind Direction,Wind SpeedMPH,Gust SpeedMPH,PrecipitationIn,Events,Conditions,WindDirDegrees,DateUTC
12:54 AM,59.0,55.9,90,29.53,6.0,North,10.4,19.6,0.01,Rain,Light Rain,360,2013-06-14 04:54:00
1:01 AM,59.0,57.2,94,29.54,5.0,North,10.4,-,0.00,Rain,Light Rain,350,2013-06-14 05:01:00
1:13 AM,59.0,55.4,88,29.54,9.0,North,10.4,18.4,0.01,Rain,Light Rain,10,2013-06-14 05:13:00
1:32 AM,57.2,55.4,94,29.56,10.0,North,12.7,20.7,0.01,,Overcast,10,2013-06-14 05:32:00
1:54 AM,59.0,55.0,87,29.57,10.0,North,9.2,-,0.01,,Overcast,10,2013-06-14 05:54:00
2:20 AM,57.2,53.6,88,29.57,7.0,NNE,15.0,26.5,0.00,Rain,Light Rain,20,2013-06-14 06:20:00
2:44 AM,57.2,53.6,88,29.59,10.0,North,11.5,21.9,0.00,,Overcast,360,2013-06-14 06:44:00
2:54 AM,57.0,53.1,87,29.60,10.0,North,16.1,21.9,0.00,,Overcast,10,2013-06-14 06:54:00
3:54 AM,57.0,52.0,83,29.62,10.0,North,13.8,19.6,N/A,,Overcast,360,2013-06-14 07:54:00
4:54 AM,57.0,53.1,87,29.65,10.0,NNW,11.5,18.4,N/A,,Overcast,340,2013-06-14 08:54:00
5:54 AM,55.9,52.0,87,29.67,8.0,North,10.4,23.0,0.00,Rain,Light Rain,10,2013-06-14 09:54:00
6:54 AM,55.0,51.1,86,29.70,10.0,North,9.2,18.4,0.02,,Overcast,350,2013-06-14 10:54:00
7:35 AM,55.4,51.8,88,29.71,10.0,North,10.4,-,0.00,,Overcast,360,2013-06-14 11:35:00
7:54 AM,55.9,51.1,84,29.73,10.0,North,8.1,-,0.00,,Overcast,360,2013-06-14 11:54:00
8:54 AM,57.0,51.1,81,29.77,10.0,North,9.2,-,N/A,,Overcast,350,2013-06-14 12:54:00
9:54 AM,59.0,51.1,75,29.80,10.0,NNW,9.2,-,N/A,,Overcast,340,2013-06-14 13:54:00
10:54 AM,59.0,51.1,75,29.82,10.0,NNW,9.2,-,0.00,Rain,Light Rain,330,2013-06-14 14:54:00
11:54 AM,60.1,52.0,75,29.83,10.0,NNW,6.9,-,0.00,Rain,Light Rain,340,2013-06-14 15:54:00
12:54 PM,63.0,50.0,63,29.83,10.0,NNW,6.9,-,0.00,,Clear,330,2013-06-14 16:54:00
1:54 PM,68.0,51.1,55,29.83,10.0,WNW,6.9,-,N/A,,Scattered Clouds,290,2013-06-14 17:54:00
2:54 PM,71.1,52.0,51,29.81,10.0,Variable,3.5,-,N/A,,Scattered Clouds,0,2013-06-14 18:54:00
3:54 PM,72.0,54.0,53,29.81,10.0,Variable,3.5,-,N/A,,Overcast,0,2013-06-14 19:54:00
4:54 PM,75.0,53.1,46,29.79,10.0,West,6.9,16.1,N/A,,Overcast,270,2013-06-14 20:54:00
5:54 PM,66.9,60.1,79,29.81,10.0,Variable,5.8,-,0.04,,Mostly Cloudy,0,2013-06-14 21:54:00
6:54 PM,66.9,60.1,79,29.87,2.5,North,5.8,-,0.08,Rain,Heavy Rain,10,2013-06-14 22:54:00
7:01 PM,64.4,59.0,83,29.86,1.2,Variable,4.6,-,0.06,Rain,Rain,0,2013-06-14 23:01:00
7:08 PM,64.4,59.0,83,29.86,3.0,Variable,3.5,-,0.08,Rain,Light Rain,0,2013-06-14 23:08:00
7:54 PM,64.0,61.0,90,29.87,10.0,Calm,Calm,-,0.08,,Partly Cloudy,0,2013-06-14 23:54:00
8:54 PM,64.0,61.0,90,29.87,10.0,West,3.5,-,N/A,,Overcast,260,2013-06-15 00:54:00
9:54 PM,62.1,60.1,93,29.89,10.0,Calm,Calm,-,N/A,,Partly Cloudy,0,2013-06-15 01:54:00
10:54 PM,62.1,59.0,90,29.92,10.0,Calm,Calm,-,N/A,,Clear,0,2013-06-15 02:54:00
11:54 PM,60.1,57.9,93,29.93,9.0,Calm,Calm,-,N/A,,Clear,0,2013-06-15 03:54:00